[[{"header":{"parameterUnit":"m.s-1","parameterCategory":2,"la1":30.2991,"la2":30.254,"lo1":-89.0895,"lo2":-89.0444,"dy":0.0017,"dx":0.0017,"nx":28,"ny":28,"refTime":"2024-04-05T09:00:00:Z","depth":"0","parameterNumber":2,"parameterNumberName":"U-component_of_CURRENTS"},"data":[0,0,0,0,0,0,0,0,0,0,0,0,0,0,0,0,0,0,0,0,0,0,0,0,0,0,0,0,0,0,0,0,0,0,0,0,0,0,0,0,0,0,0,0,0,0,0,0,0,0,0,0,0,0,0,0,0,0,0.3776,0.3778,0,0.3938,0.3939,0.3941,0.4073,0.4074,0.4076,0.4077,0.4171,0.4172,0.4173,0,0,0,0,0,0,0,0,0,0,0,0,0,0.3716,0.3715,0.3776,0.3778,0.378,0.3937,0.394,0.3942,0.4073,0.4074,0.4076,0.4077,0.417,0.4172,0.4173,0,0,0,0,0,0,0,0,0,0,0,0,0,0.3795,0.3715,0.3776,0.3864,0.3874,0.3937,0.394,0.3942,0.4072,0.4074,0.4076,0.4078,0.417,0.4172,0.4174,0.4144,0,0,0.4179,0.418,0,0,0,0,0,0,0,0,0.3791,0.3797,0.3849,0.3858,0.3869,0.3987,0.3953,0.4007,0.4072,0.3997,0.4077,0.4079,0.4101,0.4109,0.4136,0.4149,0.4153,0.4179,0.4181,0.4181,0.4182,0,0,0,0,0,0,0,0.3785,0.3792,0.384,0.3851,0.3863,0.3942,0.3955,0.3965,0.4034,0.4004,0.4013,0.4031,0.4107,0.4134,0.4139,0.4154,0.4179,0.4181,0.4182,0.4183,0.4171,0.417,0,0,0,0,0,0,0.3755,0.3786,0.3835,0.3845,0.3834,0.3941,0.3955,0.3947,0.4036,0.4052,0.4029,0.4036,0.413,0.4137,0.4143,0.415,0.4181,0.4183,0.4184,0.4172,0.4171,0.4169,0,0,0,0,0,0,0.3753,0.3757,0.3828,0.3821,0.3836,0.3939,0.393,0.3949,0.3982,0.4056,0.4072,0.4042,0.4132,0.414,0.4145,0.4153,0.4184,0.4186,0.4174,0.4172,0.417,0.4139,0,0,0,0,0,0,0.375,0.3754,0.3739,0.3818,0.3835,0.3877,0.3929,0.3951,0.3989,0.4,0.4071,0.4083,0.4134,0.4142,0.4147,0.4156,0.4187,0.4176,0.4173,0.4171,0.4142,0.4136,0.4131,0,0,0,0,0,0.3747,0.3732,0.3737,0.3744,0.3809,0.3877,0.3894,0.3975,0.3987,0.4008,0.4036,0.4081,0.413,0.4142,0.4148,0.4158,0.4177,0.4174,0.4171,0.4144,0.4137,0.4131,0,0,0,0,0,0,0.37,0.3746,0.3753,0.3751,0.3808,0.39,0.3929,0.3959,0.3998,0.4003,0.4056,0.4069,0.4081,0.4103,0.4115,0.4142,0.4162,0.416,0.414,0.4134,0.4129,0.4187,0.4189,0,0,0,0,0,0.3674,0.3676,0.3734,0.3733,0.3758,0.3829,0.3862,0.3911,0.3958,0.398,0.4017,0.4047,0.4069,0.4088,0.4113,0.4115,0.4165,0.4124,0.4119,0.4115,0.4163,0.4209,0.4214,0.4159,0.4159,0.4159,0,0,0.3653,0.368,0.368,0.3723,0.3774,0.3822,0.3856,0.3908,0.3946,0.3976,0.4018,0.4025,0.4061,0.4081,0.4089,0.4105,0.4147,0.411,0.4107,0.4159,0.4206,0.4212,0.4218,0.4156,0.4157,0.4157,0,0,0.3649,0.3638,0.3657,0.3698,0.3766,0.381,0.3814,0.3887,0.3922,0.3942,0.3974,0.3984,0.4012,0.4058,0.4077,0.4047,0.4111,0.4038,0.4073,0.4115,0.4122,0.4128,0.4173,0.4184,0.4044,0.4043,0.4043,0,0.3634,0.3643,0.3676,0.3718,0.375,0.3797,0.3835,0.3879,0.3939,0.3962,0.3953,0.4002,0.4016,0.4067,0.4064,0.4044,0.4079,0.4097,0.4113,0.4121,0.4128,0.4173,0.4185,0.4042,0.4042,0.4042,0.4042,0,0.3656,0.3665,0.3683,0.374,0.3782,0.3814,0.3877,0.3907,0.3922,0.3966,0.3998,0.401,0.4059,0.4039,0.4049,0.4102,0.4111,0.4095,0.414,0.4133,0.4178,0.4192,0.4039,0.404,0.404,0.4041,0,0,0.3609,0.3683,0.3688,0.3717,0.3785,0.3829,0.3879,0.3946,0.3991,0.4016,0.4071,0.4084,0.4099,0.4123,0.4123,0.4154,0.4205,0.4153,0.4155,0.4218,0.431,0.4219,0.4225,0.4192,0.4195,0.4197,0.4313,0,0.3615,0.3683,0.3717,0.3773,0.3806,0.386,0.3909,0.3975,0.4018,0.408,0.4105,0.4152,0.413,0.4146,0.4176,0.4208,0.4245,0.4177,0.4293,0.4298,0.4234,0.4239,0.4036,0.4114,0.4327,0.4329,0.4331,0,0.3611,0.3658,0.3714,0.3787,0.3809,0.3845,0.3931,0.3988,0.4087,0.4126,0.4188,0.4221,0.4294,0.4251,0.4348,0.4308,0.4324,0.4334,0.4337,0.429,0.4233,0.4159,0.4132,0.4064,0.4352,0.4351,0.4349,0,0.3553,0.3643,0.3683,0.3708,0.3809,0.3836,0.3886,0.3986,0.4038,0.4166,0.4208,0.4309,0.4345,0.4405,0.4437,0.4406,0.4529,0.4483,0.4422,0.4416,0.4291,0.4268,0.4236,0.4556,0.4556,0.4556,0.4555,0,0.3517,0.3542,0.3657,0.367,0.3715,0.3807,0.386,0.3936,0.4047,0.41,0.4225,0.4273,0.4383,0.4457,0.4487,0.4509,0.4578,0.4458,0.4447,0.4266,0.4241,0.4215,0.4186,0.456,0.4559,0.4558,0.4557,0,0.3425,0.35,0.3545,0.3652,0.3677,0.371,0.3807,0.3854,0.3984,0.4059,0.4103,0.4266,0.4361,0.4461,0.456,0.4547,0.4469,0.4576,0.4361,0.432,0.4159,0.4135,0.4006,0.389,0.4531,0.453,0.4529,0,0.3379,0.3398,0.3503,0.351,0.3541,0.3605,0.3634,0.3787,0.3834,0.4024,0.4038,0.4192,0.424,0.4389,0.4421,0.4489,0.4395,0.4341,0.4232,0.4147,0.4114,0.3981,0.3884,0.4052,0.4047,0.4043,0.4039,0,0.3274,0.3317,0.3355,0.3381,0.3405,0.3445,0.3496,0.3531,0.3706,0.3775,0.3858,0.3928,0.4088,0.4075,0.42,0.4211,0.4129,0.4254,0.4221,0.3793,0.3594,0.3476,0.3997,0.4003,0.4006,0.4009,0.4011,0.4013,0.3171,0.3168,0.3211,0.3213,0.3248,0.3234,0.3193,0.3279,0.3323,0.3384,0.3579,0.362,0.377,0.3895,0.39,0.3837,0.3846,0.3746,0.3747,0.364,0.3442,0.3885,0.3834,0.3837,0.3839,0.3841,0.3843,0,0.2996,0.3001,0.3022,0.3011,0.2967,0.3037,0.3052,0.2996,0.2955,0.3108,0.3154,0.3282,0.3299,0.3434,0.3478,0.3384,0.3227,0.3317,0.3097,0.3045,0.3495,0.3387,0.3167,0.3167,0.3167,0.3167,0.3167,0.3167,0.2888,0.2827,0.2841,0.2709,0.2694,0.2584,0.2536,0.2509,0.2574,0.26,0.2678,0.2812,0.3114,0.3228,0.3169,0.3091,0.2901,0.274,0.2797,0.3145,0.3185,0.3223,0.3116,0.2842,0.2842,0.2188,0.2184,0.218]},{"header":{"parameterUnit":"m.s-1","parameterCategory":2,"la1":30.2991,"la2":30.254,"lo1":-89.0895,"lo2":-89.0444,"dy":0.0017,"dx":0.0017,"nx":28,"ny":28,"refTime":"2024-04-05T09:00:00:Z","depth":"0","parameterNumber":3,"parameterNumberName":"V-component_of_CURRENTS"},"data":[0,0,0,0,0,0,0,0,0,0,0,0,0,0,0,0,0,0,0,0,0,0,0,0,0,0,0,0,0,0,0,0,0,0,0,0,0,0,0,0,0,0,0,0,0,0,0,0,0,0,0,0,0,0,0,0,0,0,-0.0231,-0.0232,0,-0.0408,-0.041,-0.0413,-0.0598,-0.0599,-0.0601,-0.0603,-0.0955,-0.0962,-0.097,0,0,0,0,0,0,0,0,0,0,0,0,0,-0.0101,-0.0103,-0.023,-0.0232,-0.0233,-0.0407,-0.041,-0.0414,-0.0597,-0.0599,-0.0602,-0.0604,-0.0952,-0.0961,-0.097,0,0,0,0,0,0,0,0,0,0,0,0,0,-0.0213,-0.0103,-0.023,-0.034,-0.0351,-0.0407,-0.0411,-0.0415,-0.0597,-0.06,-0.0602,-0.0605,-0.0949,-0.096,-0.0972,-0.0989,0,0,-0.1007,-0.1012,0,0,0,0,0,0,0,0,-0.0206,-0.0219,-0.0322,-0.0332,-0.0345,-0.0476,-0.0493,-0.0613,-0.0596,-0.0512,-0.0603,-0.0606,-0.0803,-0.0827,-0.0864,-0.1005,-0.1021,-0.1008,-0.1015,-0.102,-0.1023,0,0,0,0,0,0,0,-0.0198,-0.0212,-0.0309,-0.0323,-0.0337,-0.0397,-0.0416,-0.0517,-0.065,-0.052,-0.0531,-0.0537,-0.0812,-0.0852,-0.0874,-0.1026,-0.1008,-0.1018,-0.1025,-0.103,-0.1163,-0.116,0,0,0,0,0,0,-0.0154,-0.0204,-0.0303,-0.0314,-0.0271,-0.0396,-0.0418,-0.0438,-0.0646,-0.0676,-0.0535,-0.0545,-0.0831,-0.086,-0.0887,-0.0881,-0.102,-0.1031,-0.1037,-0.1166,-0.1162,-0.1159,0,0,0,0,0,0,-0.0151,-0.0162,-0.0296,-0.0256,-0.0276,-0.0394,-0.0416,-0.044,-0.0472,-0.0653,-0.069,-0.054,-0.0834,-0.0871,-0.0932,-0.0898,-0.1036,-0.1046,-0.117,-0.1165,-0.116,-0.0896,0,0,0,0,0,0,-0.0147,-0.016,-0.0163,-0.0253,-0.0276,-0.0304,-0.0413,-0.0441,-0.0468,-0.0483,-0.067,-0.0706,-0.0839,-0.0913,-0.0943,-0.0917,-0.1055,-0.1175,-0.1168,-0.1162,-0.0909,-0.0882,-0.086,0,0,0,0,0,-0.0142,-0.0137,-0.0163,-0.0174,-0.0276,-0.03,-0.0318,-0.0417,-0.0464,-0.046,-0.0565,-0.07,-0.0895,-0.0918,-0.0955,-0.0932,-0.1178,-0.117,-0.1163,-0.092,-0.0887,-0.086,0,0,0,0,0,0,-0.0071,-0.0157,-0.0187,-0.0205,-0.0231,-0.0328,-0.034,-0.0386,-0.0465,-0.0487,-0.0656,-0.0697,-0.0733,-0.0854,-0.0876,-0.0946,-0.1059,-0.1058,-0.0862,-0.0834,-0.0809,-0.0798,-0.1065,0,0,0,0,0,-0.005,-0.0079,-0.0138,-0.0143,-0.0155,-0.0233,-0.0256,-0.0307,-0.0383,-0.0422,-0.0537,-0.0654,-0.0729,-0.0796,-0.0885,-0.0929,-0.1,-0.0936,-0.0911,-0.0889,-0.09,-0.0918,-0.0896,-0.1134,-0.1134,-0.1134,0,0,-0.0017,-0.0068,-0.0081,-0.0129,-0.017,-0.0173,-0.0257,-0.027,-0.0272,-0.0446,-0.0488,-0.0565,-0.0712,-0.0749,-0.078,-0.0854,-0.0848,-0.088,-0.086,-0.0884,-0.0908,-0.0885,-0.0865,-0.1129,-0.1129,-0.113,0,0,0.004,-0.0008,-0.0011,-0.0029,-0.0065,-0.0111,-0.0095,-0.0161,-0.0196,-0.0221,-0.0329,-0.0364,-0.0517,-0.0591,-0.0655,-0.0546,-0.0697,-0.0584,-0.0484,-0.0498,-0.0479,-0.0463,-0.0477,-0.0465,-0.0596,-0.0595,-0.0595,0,0.0081,0.0064,-0.0002,0.0001,-0.0008,-0.0068,-0.0046,-0.0077,-0.0147,-0.0158,-0.0207,-0.0335,-0.0442,-0.0477,-0.0439,-0.0493,-0.0531,-0.0583,-0.0464,-0.0451,-0.044,-0.0459,-0.0449,-0.0581,-0.0583,-0.0584,-0.0586,0,0.0134,0.0127,0.0135,0.0103,0.0097,0.011,0.0072,0.0072,0.0033,-0.0008,-0.0021,-0.0124,-0.0213,-0.0228,-0.0315,-0.0281,-0.0339,-0.0406,-0.0535,-0.0399,-0.0429,-0.0423,-0.0562,-0.0567,-0.0571,-0.0574,0,0,0.02,0.0171,0.0173,0.0183,0.0149,0.0155,0.0173,0.0168,0.0183,0.0138,0.0154,0.0078,0.0033,-0.0038,-0.012,-0.0136,-0.0056,-0.0231,-0.0238,-0.0238,-0.0082,-0.0107,-0.0105,-0.0101,-0.01,-0.0098,-0.0119,0,0.0261,0.0285,0.0251,0.03,0.0315,0.0275,0.0296,0.0289,0.0266,0.0272,0.0209,0.0188,0.0099,0.008,0.0063,-0.0035,-0.0037,-0.0045,-0.0225,-0.023,-0.0263,-0.0098,-0.0098,-0.0116,-0.0115,-0.0114,-0.0114,0,0.032,0.0323,0.0371,0.0389,0.0394,0.0419,0.044,0.0452,0.0444,0.0428,0.0407,0.0343,0.0323,0.0238,0.015,0.0147,0.0058,-0.0014,-0.0018,-0.0143,-0.0245,-0.0264,-0.0108,-0.0286,-0.0107,-0.0107,-0.0108,0,0.0391,0.0412,0.0451,0.0455,0.0464,0.0494,0.0505,0.0505,0.0533,0.0535,0.0558,0.0497,0.0481,0.0377,0.0228,0.0192,0.0131,0.0052,-0.0049,-0.0053,-0.0145,-0.0159,-0.0185,0.0011,0.0011,0.0011,0.0011,0,0.0457,0.0495,0.0493,0.0516,0.0581,0.0568,0.0642,0.0639,0.0667,0.0728,0.065,0.0688,0.0517,0.045,0.0298,0.0157,0.0184,0.0001,-0.0046,-0.0047,-0.0052,-0.0293,-0.0391,0.001,0.0011,0.0011,0.0011,0,0.0535,0.0526,0.0579,0.0601,0.0616,0.0666,0.0728,0.0785,0.0797,0.088,0.0893,0.0845,0.0764,0.0586,0.0416,0.0257,0.0018,0.0049,0.0063,0.0019,-0.0252,-0.0336,-0.0461,-0.0518,-0.0057,-0.0058,-0.0058,0,0.0578,0.0608,0.0643,0.068,0.0698,0.0767,0.0822,0.0847,0.0919,0.0985,0.1045,0.0994,0.0978,0.0724,0.0439,0.019,0.0022,0.0014,-0.0056,-0.0231,-0.036,-0.044,-0.0485,-0.0061,-0.0061,-0.0062,-0.0062,0,0.0658,0.0664,0.0695,0.0768,0.0832,0.091,0.0998,0.1072,0.1128,0.1203,0.1288,0.1282,0.1046,0.0789,0.0437,0.0256,-0.0102,-0.0002,-0.0186,-0.0349,-0.0438,-0.0528,-0.0091,-0.0065,-0.0065,-0.0064,-0.0064,-0.0064,0.0715,0.0748,0.0784,0.086,0.0934,0.1045,0.1131,0.1239,0.1359,0.1483,0.1467,0.1493,0.1109,0.0629,0.0357,-0.0143,-0.0143,-0.0315,-0.0395,-0.0455,-0.0524,-0.0084,-0.0116,-0.0116,-0.0116,-0.0116,-0.0116,0,0.0772,0.0804,0.0877,0.0962,0.1059,0.1086,0.124,0.134,0.1496,0.1619,0.1684,0.1523,0.1042,0.0574,-0.011,-0.0482,-0.0607,-0.0672,-0.0794,-0.0814,-0.0426,-0.0441,-0.0542,-0.0542,-0.0542,-0.0541,-0.0541,-0.0541,0.0802,0.0863,0.0893,0.1046,0.1121,0.1259,0.1351,0.1499,0.1623,0.1775,0.1813,0.1809,0.1444,0.0169,-0.0696,-0.0877,-0.1097,-0.1169,-0.1274,-0.1037,-0.1011,-0.0985,-0.1023,-0.1244,-0.1245,-0.1629,-0.1633,-0.1636]}],[{"header":{"parameterUnit":"m.s-1","parameterCategory":2,"la1":30.2991,"la2":30.254,"lo1":-89.0895,"lo2":-89.0444,"dy":0.0017,"dx":0.0017,"nx":28,"ny":28,"refTime":"2024-04-05T09:00:00:Z","depth":"2","parameterNumber":2,"parameterNumberName":"U-component_of_CURRENTS"},"data":[0,0,0,0,0,0,0,0,0,0,0,0,0,0,0,0,0,0,0,0,0,0,0,0,0,0,0,0,0,0,0,0,0,0,0,0,0,0,0,0,0,0,0,0,0,0,0,0,0,0,0,0,0,0,0,0,0,0,0.2889,0.289,0,0.312,0.3125,0.3129,0.3301,0.33,0.33,0.3299,0.325,0.3249,0.3249,0,0,0,0,0,0,0,0,0,0,0,0,0,0.2872,0.2872,0.2889,0.289,0.289,0.3119,0.3125,0.3131,0.3301,0.33,0.33,0.3299,0.325,0.3249,0.3248,0,0,0,0,0,0,0,0,0,0,0,0,0,0.2992,0.2872,0.2889,0.2985,0.2994,0.3118,0.3125,0.3132,0.3302,0.33,0.3299,0.3298,0.325,0.3249,0.3248,0.3266,0,0,0.3246,0.3245,0,0,0,0,0,0,0,0,0.2984,0.2995,0.297,0.2978,0.2988,0.3159,0.31,0.3154,0.3302,0.3211,0.3299,0.3298,0.3177,0.3183,0.3269,0.3264,0.3262,0.3246,0.3245,0.3245,0.3244,0,0,0,0,0,0,0,0.2976,0.2988,0.3006,0.297,0.2981,0.3109,0.3125,0.3116,0.3212,0.3219,0.3226,0.3212,0.3184,0.327,0.3267,0.3261,0.3246,0.3245,0.3244,0.3244,0.3264,0.3265,0,0,0,0,0,0,0.2883,0.2978,0.2998,0.301,0.2955,0.3107,0.3126,0.3126,0.3219,0.3227,0.3213,0.3219,0.3272,0.3268,0.3265,0.3258,0.3245,0.3244,0.3243,0.3263,0.3264,0.3265,0,0,0,0,0,0,0.2883,0.2884,0.2988,0.2979,0.2998,0.3103,0.3105,0.313,0.3179,0.3212,0.322,0.3226,0.3271,0.3266,0.3213,0.3257,0.3243,0.3243,0.3262,0.3263,0.3265,0.326,0,0,0,0,0,0,0.2882,0.2883,0.2889,0.2973,0.2994,0.3015,0.3104,0.3135,0.3162,0.3172,0.3226,0.3225,0.3269,0.3214,0.3212,0.3255,0.3242,0.326,0.3262,0.3264,0.3259,0.3262,0.3264,0,0,0,0,0,0.2881,0.288,0.2888,0.2891,0.2986,0.3011,0.3037,0.3127,0.3162,0.3173,0.3199,0.3221,0.3229,0.3212,0.321,0.3254,0.3259,0.3262,0.3264,0.3258,0.3261,0.3264,0,0,0,0,0,0,0.287,0.2897,0.2909,0.2914,0.2928,0.3029,0.3074,0.3097,0.3148,0.3174,0.3193,0.3192,0.3179,0.3198,0.3179,0.3271,0.3265,0.3267,0.3261,0.3264,0.3266,0.3279,0.3241,0,0,0,0,0,0.2859,0.2874,0.2888,0.2888,0.2904,0.2979,0.301,0.3058,0.3091,0.3121,0.3138,0.3178,0.3203,0.3205,0.323,0.324,0.3265,0.3282,0.3284,0.3286,0.3298,0.3347,0.3355,0.3273,0.3273,0.3273,0,0,0.2849,0.2865,0.2872,0.2887,0.2944,0.2979,0.3004,0.3046,0.3087,0.3094,0.3154,0.316,0.3199,0.3241,0.3242,0.325,0.3323,0.3289,0.329,0.3301,0.335,0.3358,0.3365,0.3275,0.3275,0.3274,0,0,0.2849,0.2856,0.2883,0.2894,0.293,0.298,0.2958,0.3028,0.3079,0.3092,0.3137,0.3138,0.3173,0.3232,0.326,0.3274,0.3319,0.3302,0.3337,0.3384,0.3391,0.3398,0.3436,0.3446,0.3321,0.3321,0.3321,0,0.2849,0.2864,0.2886,0.2913,0.2927,0.2957,0.2984,0.3049,0.3085,0.3106,0.3098,0.3186,0.3187,0.3261,0.3288,0.3281,0.3314,0.3319,0.3386,0.3393,0.34,0.3438,0.3449,0.3321,0.3321,0.3321,0.3321,0,0.2858,0.2884,0.2898,0.2948,0.2967,0.2987,0.3034,0.3062,0.3096,0.3146,0.3187,0.3214,0.3272,0.3283,0.3287,0.3362,0.3371,0.3366,0.3375,0.3408,0.3446,0.3458,0.3321,0.3321,0.3321,0.3321,0,0,0.2836,0.2899,0.2907,0.2935,0.2985,0.3,0.3057,0.3105,0.3161,0.3193,0.3259,0.3297,0.3322,0.3356,0.338,0.3414,0.347,0.3417,0.342,0.3449,0.3582,0.3453,0.3453,0.3484,0.3486,0.3488,0.3588,0,0.2844,0.2893,0.2926,0.2976,0.3003,0.3039,0.3089,0.3139,0.3196,0.3269,0.331,0.3382,0.3359,0.3401,0.3433,0.3469,0.3503,0.3444,0.3553,0.3556,0.3431,0.3462,0.3222,0.3279,0.3599,0.3601,0.3602,0,0.2843,0.2878,0.2921,0.2993,0.3012,0.3052,0.313,0.3186,0.3287,0.3337,0.3413,0.3458,0.3534,0.3502,0.3592,0.3564,0.3576,0.3583,0.3588,0.3478,0.3448,0.3301,0.3288,0.3622,0.362,0.3619,0.3618,0,0.2801,0.2875,0.2907,0.2922,0.3007,0.3043,0.3104,0.3199,0.3254,0.3402,0.345,0.3561,0.3625,0.3664,0.3673,0.3656,0.375,0.3734,0.3627,0.3619,0.344,0.3411,0.3783,0.3783,0.3783,0.3783,0.3783,0,0.2777,0.2804,0.2895,0.2911,0.2958,0.3039,0.3111,0.3195,0.3318,0.3374,0.35,0.3556,0.3665,0.3718,0.3723,0.3708,0.38,0.3638,0.3637,0.3429,0.3399,0.3716,0.3707,0.3787,0.3786,0.3785,0.3784,0,0.2709,0.2765,0.2807,0.2909,0.2937,0.2977,0.3087,0.3144,0.3283,0.3367,0.3412,0.3578,0.3646,0.3713,0.379,0.3755,0.3762,0.3725,0.3467,0.343,0.3594,0.3584,0.3644,0.364,0.3637,0.3635,0.3632,0,0.267,0.2681,0.2784,0.2797,0.2842,0.2906,0.2947,0.3103,0.3168,0.3336,0.3373,0.3495,0.3527,0.3619,0.3607,0.3617,0.3681,0.338,0.3281,0.3588,0.3581,0.3576,0.357,0.3058,0.3051,0.3045,0.3041,0,0.2576,0.262,0.2654,0.2693,0.2739,0.277,0.2861,0.2897,0.306,0.313,0.321,0.3254,0.3365,0.3279,0.3318,0.3284,0.3363,0.3264,0.3681,0.3108,0.3036,0.3029,0.3043,0.2992,0.2997,0.3,0.3003,0.3005,0.2491,0.2482,0.2528,0.2544,0.2592,0.2605,0.2589,0.2686,0.2731,0.2804,0.2954,0.295,0.3038,0.2959,0.2884,0.2851,0.3068,0.2954,0.2971,0.2994,0.2886,0.2809,0.2704,0.2707,0.271,0.2712,0.2714,0,0.2333,0.2342,0.2364,0.2371,0.2356,0.2443,0.2487,0.2447,0.2426,0.2551,0.2587,0.2421,0.2401,0.2477,0.2362,0.2375,0.2363,0.2276,0.2249,0.2301,0.2347,0.2204,0.1843,0.1839,0.1836,0.1833,0,0,0.225,0.22,0.2207,0.2111,0.2127,0.2066,0.2055,0.204,0.2093,0.2056,0.2065,0.227,0.2398,0.2071,0.2058,0.1923,0.2085,0.1851,0.2561,0.2581,0.2621,0.2761,0.2602,0,0,0,0,0]},{"header":{"parameterUnit":"m.s-1","parameterCategory":2,"la1":30.2991,"la2":30.254,"lo1":-89.0895,"lo2":-89.0444,"dy":0.0017,"dx":0.0017,"nx":28,"ny":28,"refTime":"2024-04-05T09:00:00:Z","depth":"2","parameterNumber":3,"parameterNumberName":"V-component_of_CURRENTS"},"data":[0,0,0,0,0,0,0,0,0,0,0,0,0,0,0,0,0,0,0,0,0,0,0,0,0,0,0,0,0,0,0,0,0,0,0,0,0,0,0,0,0,0,0,0,0,0,0,0,0,0,0,0,0,0,0,0,0,0,0.0155,0.0155,0,0.0043,0.0041,0.0038,-0.0071,-0.0071,-0.0071,-0.0071,-0.015,-0.0152,-0.0154,0,0,0,0,0,0,0,0,0,0,0,0,0,0.0219,0.0218,0.0155,0.0155,0.0155,0.0044,0.004,0.0037,-0.0071,-0.0071,-0.0071,-0.0071,-0.0149,-0.0152,-0.0154,0,0,0,0,0,0,0,0,0,0,0,0,0,0.0144,0.0217,0.0155,0.0099,0.0094,0.0044,0.004,0.0037,-0.0071,-0.0071,-0.0071,-0.0071,-0.0148,-0.0151,-0.0154,-0.0172,0,0,-0.0164,-0.0165,0,0,0,0,0,0,0,0,0.0148,0.014,0.0107,0.0103,0.0097,0.0013,0.0035,-0.0026,-0.0071,-0.0025,-0.0071,-0.0071,-0.0082,-0.0091,-0.0134,-0.0176,-0.0179,-0.0164,-0.0166,-0.0167,-0.0168,0,0,0,0,0,0,0,0.0154,0.0144,0.0096,0.0107,0.0101,0.0061,0.0049,0.0021,-0.0063,-0.0029,-0.0033,-0.0022,-0.0087,-0.0131,-0.0136,-0.0181,-0.0164,-0.0167,-0.0169,-0.017,-0.0282,-0.0283,0,0,0,0,0,0,0.0201,0.0149,0.01,0.0094,0.014,0.0061,0.0047,0.0028,-0.0063,-0.0073,-0.0021,-0.0026,-0.0126,-0.0132,-0.0139,-0.0135,-0.0167,-0.017,-0.0172,-0.0281,-0.0282,-0.0283,0,0,0,0,0,0,0.0202,0.0196,0.0104,0.0133,0.012,0.0062,0.004,0.0026,0.0003,-0.0055,-0.0068,-0.0024,-0.0126,-0.0135,-0.0142,-0.014,-0.0172,-0.0174,-0.0279,-0.0281,-0.0283,-0.0146,0,0,0,0,0,0,0.0203,0.0196,0.0183,0.0135,0.0121,0.0106,0.0042,0.0024,0.0017,0.0009,-0.0062,-0.0071,-0.0127,-0.0137,-0.0145,-0.0144,-0.0177,-0.0278,-0.028,-0.0282,-0.0149,-0.0142,-0.0137,0,0,0,0,0,0.0205,0.0197,0.0182,0.0177,0.0109,0.011,0.0097,0.0045,0.0018,0.002,-0.003,-0.0068,-0.0158,-0.0138,-0.0148,-0.0148,-0.0277,-0.028,-0.0282,-0.0151,-0.0144,-0.0137,0,0,0,0,0,0,0.0225,0.0186,0.0167,0.0148,0.0149,0.0098,0.0087,0.0067,0.0022,0.0007,-0.0054,-0.0066,-0.0078,-0.0136,-0.0113,-0.0197,-0.0236,-0.024,-0.0133,-0.0127,-0.0121,-0.0093,-0.0179,0,0,0,0,0,0.0228,0.0203,0.0188,0.0179,0.0178,0.0138,0.0128,0.0103,0.0071,0.0048,0.0006,-0.0059,-0.0104,-0.0125,-0.0175,-0.0198,-0.0234,-0.022,-0.0214,-0.0208,-0.0198,-0.0232,-0.0226,-0.0292,-0.0292,-0.0292,0,0,0.0241,0.0215,0.0204,0.0183,0.0161,0.0165,0.0127,0.0126,0.0124,0.0051,0.0026,-0.0021,-0.0103,-0.0137,-0.0153,-0.0178,-0.0212,-0.0212,-0.0205,-0.0199,-0.0233,-0.0226,-0.022,-0.0293,-0.0293,-0.0293,0,0,0.0271,0.0228,0.0226,0.0223,0.0218,0.0193,0.0211,0.0179,0.0155,0.0143,0.0079,0.0052,-0.0027,-0.0079,-0.0118,-0.0109,-0.0168,-0.015,-0.01,-0.0131,-0.0124,-0.0119,-0.015,-0.0149,-0.0158,-0.0158,-0.0158,0,0.0286,0.0275,0.0236,0.0242,0.0247,0.0219,0.0241,0.0211,0.0184,0.0178,0.0151,0.0049,-0.0002,-0.0041,-0.0052,-0.0088,-0.0122,-0.0105,-0.0116,-0.0112,-0.0109,-0.0142,-0.0142,-0.0152,-0.0152,-0.0153,-0.0154,0,0.0322,0.0312,0.0318,0.0302,0.0304,0.0319,0.03,0.0296,0.0269,0.0239,0.0215,0.0144,0.0085,0.0051,0.0003,-0.0014,-0.005,-0.0086,-0.0114,-0.0092,-0.0131,-0.0133,-0.0143,-0.0145,-0.0147,-0.0148,0,0,0.0358,0.0343,0.0345,0.0356,0.0335,0.0352,0.035,0.0352,0.0362,0.0313,0.0322,0.0236,0.0204,0.0155,0.0093,0.0058,0.0058,-0.0003,-0.0007,0.0002,-0.0013,-0.0043,-0.0049,0.0024,0.0024,0.0024,-0.0045,0,0.0402,0.0428,0.0404,0.0442,0.0459,0.0432,0.044,0.0432,0.041,0.0408,0.0338,0.0315,0.0238,0.0223,0.0177,0.0091,0.0056,0.008,-0.0068,-0.0072,-0.0071,-0.0051,-0.0012,-0.0071,-0.0048,-0.0048,-0.0049,0,0.0449,0.0458,0.05,0.0516,0.0523,0.0542,0.0561,0.0564,0.0541,0.0524,0.0486,0.043,0.0376,0.0312,0.0184,0.02,0.0107,0.0034,0.0029,-0.0046,-0.0106,-0.0097,-0.0077,-0.0053,-0.0053,-0.0052,-0.0052,0,0.0508,0.0528,0.0566,0.057,0.058,0.0605,0.0615,0.0606,0.0627,0.0608,0.0622,0.0532,0.0507,0.0379,0.0222,0.0204,0.0082,0.0037,-0.0079,-0.0083,-0.0103,-0.0109,-0.0045,-0.0045,-0.0045,-0.0044,-0.0044,0,0.0559,0.0593,0.0602,0.0625,0.0682,0.0672,0.0734,0.0725,0.0741,0.0779,0.0693,0.0705,0.0525,0.0427,0.0266,0.0092,0.0112,-0.0058,-0.0098,-0.0058,-0.0059,-0.0093,-0.0098,-0.0047,-0.0046,-0.0046,-0.0045,0,0.062,0.0619,0.0669,0.0696,0.0711,0.0757,0.0815,0.0862,0.0862,0.0914,0.0918,0.0844,0.0713,0.0518,0.0316,0.0164,-0.0009,-0.0078,-0.002,-0.0051,-0.0165,-0.0163,-0.0209,-0.0211,-0.0212,-0.0213,-0.0214,0,0.0654,0.0684,0.0726,0.0763,0.0782,0.0848,0.0897,0.0918,0.0979,0.0999,0.1039,0.094,0.0877,0.0571,0.0292,0.0016,-0.0023,-0.0128,-0.0158,-0.0146,-0.018,-0.0175,-0.0171,-0.0134,-0.0134,-0.0134,-0.0135,0,0.0717,0.0729,0.0765,0.0837,0.0898,0.0972,0.1052,0.1114,0.115,0.1189,0.1215,0.1167,0.0892,0.0622,0.0255,0.0075,-0.0083,-0.0141,-0.0134,-0.0099,-0.0081,-0.0113,-0.011,-0.0136,-0.0136,-0.0136,-0.0136,-0.0135,0.0763,0.0797,0.0839,0.091,0.0982,0.1079,0.1152,0.1243,0.1326,0.1387,0.1342,0.1276,0.099,0.0518,0.0204,-0.0114,-0.0105,-0.0213,-0.021,-0.0207,-0.0186,-0.0172,-0.024,-0.024,-0.024,-0.0241,-0.0241,0,0.0803,0.0838,0.0909,0.0987,0.1073,0.1105,0.124,0.1316,0.1416,0.1472,0.1478,0.1202,0.0901,0.0566,0.0091,-0.0195,-0.0202,-0.0277,-0.0224,-0.022,-0.0217,-0.0196,-0.0252,-0.0254,-0.0255,-0.0255,0,0,0.0823,0.088,0.091,0.1037,0.1107,0.1226,0.1302,0.141,0.1487,0.153,0.1498,0.1421,0.1014,0.0666,0.0282,0.0011,-0.0034,-0.0033,0.0011,0.0126,0.0132,-0.0142,-0.01,0,0,0,0,0]}],[{"header":{"parameterUnit":"m.s-1","parameterCategory":2,"la1":30.2991,"la2":30.254,"lo1":-89.0895,"lo2":-89.0444,"dy":0.0017,"dx":0.0017,"nx":28,"ny":28,"refTime":"2024-04-05T09:00:00:Z","depth":"4","parameterNumber":2,"parameterNumberName":"U-component_of_CURRENTS"},"data":[0,0,0,0,0,0,0,0,0,0,0,0,0,0,0,0,0,0,0,0,0,0,0,0,0,0,0,0,0,0,0,0,0,0,0,0,0,0,0,0,0,0,0,0,0,0,0,0,0,0,0,0,0,0,0,0,0,0,0.14,0.14,0,0.137,0.1369,0.1368,0.1331,0.1331,0.1332,0.1332,0.1392,0.1394,0.1395,0,0,0,0,0,0,0,0,0,0,0,0,0,0.1335,0.1336,0.14,0.14,0.1401,0.137,0.1369,0.1368,0.1331,0.1331,0.1332,0.1332,0.1392,0.1394,0.1395,0,0,0,0,0,0,0,0,0,0,0,0,0,0.1331,0.1336,0.14,0.1386,0.1385,0.1371,0.1369,0.1367,0.1331,0.1331,0.1332,0.1332,0.1392,0.1393,0.1395,0.1397,0,0,0.1401,0.1402,0,0,0,0,0,0,0,0,0.1331,0.1332,0.1388,0.1387,0.1386,0.1364,0.1369,0.1385,0.1331,0.1341,0.1332,0.1332,0.1398,0.1399,0.1376,0.14,0.1403,0.1401,0.1403,0.1403,0.1404,0,0,0,0,0,0,0,0.1331,0.1332,0.1378,0.1388,0.1388,0.1352,0.1351,0.137,0.136,0.134,0.134,0.1352,0.1396,0.1374,0.1378,0.1403,0.1401,0.1403,0.1404,0.1405,0.1598,0.1602,0,0,0,0,0,0,0.136,0.1333,0.1379,0.1378,0.1371,0.1354,0.1353,0.1362,0.1358,0.136,0.1352,0.1351,0.1371,0.1376,0.138,0.1494,0.1403,0.1405,0.1406,0.1595,0.1599,0.1604,0,0,0,0,0,0,0.1358,0.1364,0.138,0.1363,0.1364,0.1356,0.1366,0.1362,0.1388,0.1368,0.137,0.139,0.1371,0.1378,0.1463,0.1493,0.1406,0.1408,0.159,0.1596,0.1602,0.1652,0,0,0,0,0,0,0.1356,0.1363,0.139,0.1365,0.1366,0.1405,0.1366,0.1361,0.1397,0.1396,0.1401,0.1403,0.1372,0.1461,0.1466,0.1494,0.1409,0.1585,0.1593,0.16,0.1645,0.1659,0.1671,0,0,0,0,0,0.1354,0.137,0.1391,0.1398,0.14,0.1408,0.1405,0.1392,0.1399,0.1416,0.1447,0.1406,0.1511,0.1466,0.147,0.15,0.1581,0.159,0.1599,0.164,0.1656,0.167,0,0,0,0,0,0,0.1349,0.1369,0.1391,0.1414,0.1437,0.1406,0.1417,0.1429,0.1459,0.1473,0.1458,0.1464,0.1543,0.1541,0.1492,0.1587,0.1539,0.155,0.1569,0.1585,0.1597,0.1603,0.1411,0,0,0,0,0,0.1369,0.1393,0.1412,0.1439,0.1451,0.1453,0.1463,0.1467,0.1486,0.1498,0.152,0.155,0.1573,0.1599,0.1619,0.1679,0.1679,0.1707,0.172,0.173,0.1745,0.1784,0.18,0.1633,0.1633,0.1633,0,0,0.1381,0.1394,0.1412,0.1443,0.1449,0.1465,0.1457,0.1487,0.1517,0.1505,0.1574,0.1599,0.1605,0.166,0.1695,0.1667,0.1782,0.1741,0.1749,0.1759,0.1795,0.181,0.1824,0.1639,0.1638,0.1637,0,0,0.1391,0.1425,0.1445,0.147,0.1509,0.1504,0.1535,0.1559,0.1587,0.1662,0.1659,0.1726,0.1769,0.1774,0.1778,0.1889,0.1849,0.1901,0.1961,0.1999,0.2012,0.2023,0.2043,0.2056,0.1904,0.1904,0.1905,0,0.1416,0.1434,0.1456,0.1479,0.1506,0.1533,0.1565,0.1586,0.1649,0.169,0.1703,0.1803,0.1813,0.1865,0.1903,0.191,0.1926,0.1886,0.201,0.2021,0.2031,0.205,0.2063,0.1908,0.1908,0.1907,0.1907,0,0.1427,0.1462,0.1473,0.1513,0.1547,0.1578,0.1621,0.1681,0.1732,0.1758,0.1866,0.1902,0.1958,0.1974,0.1968,0.2054,0.2039,0.2015,0.1954,0.205,0.2065,0.2078,0.1913,0.1912,0.1911,0.191,0,0,0.1425,0.1476,0.1486,0.1518,0.1574,0.1598,0.1668,0.173,0.178,0.1869,0.1944,0.2015,0.2056,0.207,0.2085,0.213,0.2215,0.2117,0.2117,0.2108,0.2299,0.2134,0.2131,0.2209,0.2212,0.2214,0.2277,0,0.1435,0.1482,0.151,0.1567,0.1591,0.1654,0.1714,0.1786,0.1844,0.1924,0.1994,0.2071,0.208,0.2132,0.2178,0.2219,0.2253,0.22,0.2235,0.2236,0.2051,0.2141,0.2223,0.2286,0.2289,0.2291,0.2293,0,0.1432,0.146,0.1524,0.1602,0.1624,0.1672,0.1775,0.1837,0.1936,0.1994,0.2083,0.2133,0.2246,0.2227,0.2342,0.2314,0.2319,0.2334,0.2336,0.2171,0.2093,0.2177,0.2315,0.2313,0.2311,0.231,0.2309,0,0.1399,0.1472,0.1528,0.1556,0.1644,0.1707,0.1768,0.1867,0.1934,0.2052,0.2115,0.2226,0.2308,0.2362,0.2412,0.2396,0.2504,0.2468,0.2316,0.2304,0.2406,0.2393,0.2522,0.2522,0.2522,0.2522,0.2522,0,0.1376,0.142,0.1525,0.1546,0.1624,0.1709,0.1804,0.1873,0.199,0.2058,0.2161,0.2231,0.2352,0.242,0.2443,0.2424,0.2528,0.2345,0.2316,0.2429,0.2418,0.2414,0.24,0.2524,0.2524,0.2523,0.2523,0,0.1322,0.1394,0.1452,0.1562,0.1606,0.1669,0.1814,0.187,0.1997,0.2092,0.2149,0.2278,0.237,0.244,0.2521,0.2444,0.2451,0.24,0.2526,0.25,0.2219,0.2209,0.2254,0.2249,0.2245,0.2241,0.2238,0,0.1299,0.1325,0.1446,0.1487,0.1541,0.1649,0.1717,0.1858,0.191,0.2098,0.2125,0.2267,0.2332,0.2325,0.2397,0.2411,0.2367,0.2342,0.2279,0.2228,0.2196,0.2193,0.2188,0.2231,0.223,0.2229,0.2228,0,0.1237,0.13,0.1344,0.1422,0.1501,0.1573,0.1675,0.1708,0.187,0.2003,0.207,0.2118,0.2186,0.2234,0.2243,0.2247,0.2356,0.2295,0.2304,0.2244,0.22,0.2172,0.2173,0.2212,0.2215,0.2216,0.2217,0,0.1201,0.1213,0.1284,0.1346,0.1433,0.1468,0.1537,0.1612,0.1695,0.1893,0.1911,0.2051,0.2175,0.2147,0.2169,0.2153,0.2116,0.2033,0.2055,0.2072,0.1977,0.1893,0.18,0,0,0,0,0,0.115,0.115,0.12,0.1259,0.134,0.1389,0.1495,0.1567,0.1721,0.1723,0.1815,0.1876,0.1917,0.1983,0.1928,0.2065,0.2109,0.1988,0.2022,0.2128,0.2146,0.2048,0,0,0,0,0,0,0.1112,0.1147,0.1162,0.118,0.1204,0.1277,0.1338,0.144,0.1445,0.1608,0.1644,0.1761,0.1828,0.1943,0.1898,0.1913,0.1891,0.2072,0.2066,0.2118,0.2134,0.2148,0.2054,0,0,0,0,0]},{"header":{"parameterUnit":"m.s-1","parameterCategory":2,"la1":30.2991,"la2":30.254,"lo1":-89.0895,"lo2":-89.0444,"dy":0.0017,"dx":0.0017,"nx":28,"ny":28,"refTime":"2024-04-05T09:00:00:Z","depth":"4","parameterNumber":3,"parameterNumberName":"V-component_of_CURRENTS"},"data":[0,0,0,0,0,0,0,0,0,0,0,0,0,0,0,0,0,0,0,0,0,0,0,0,0,0,0,0,0,0,0,0,0,0,0,0,0,0,0,0,0,0,0,0,0,0,0,0,0,0,0,0,0,0,0,0,0,0,0.0268,0.0268,0,0.0313,0.0314,0.0315,0.0388,0.0389,0.039,0.0391,0.0423,0.0423,0.0424,0,0,0,0,0,0,0,0,0,0,0,0,0,0.0299,0.0299,0.0268,0.0268,0.0268,0.0313,0.0314,0.0315,0.0388,0.0389,0.039,0.0391,0.0423,0.0423,0.0424,0,0,0,0,0,0,0,0,0,0,0,0,0,0.0315,0.0298,0.0268,0.0306,0.0309,0.0312,0.0314,0.0315,0.0388,0.0389,0.039,0.0392,0.0423,0.0423,0.0424,0.04,0,0,0.0424,0.0424,0,0,0,0,0,0,0,0,0.0314,0.0314,0.03,0.0303,0.0307,0.0341,0.0337,0.0341,0.0388,0.0364,0.0391,0.0392,0.039,0.0393,0.0407,0.0402,0.0403,0.0424,0.0424,0.0424,0.0424,0,0,0,0,0,0,0,0.0312,0.0313,0.0292,0.03,0.0304,0.0338,0.0342,0.0339,0.0374,0.0367,0.037,0.0365,0.0393,0.0407,0.0408,0.0404,0.0424,0.0424,0.0424,0.0424,0.0359,0.0357,0,0,0,0,0,0,0.029,0.0311,0.029,0.0293,0.0306,0.0336,0.034,0.0334,0.0375,0.038,0.0364,0.0369,0.0406,0.0408,0.041,0.0389,0.0424,0.0424,0.0425,0.0361,0.0358,0.0356,0,0,0,0,0,0,0.0291,0.0288,0.0289,0.0299,0.03,0.0333,0.0326,0.0334,0.0352,0.0372,0.0379,0.0374,0.0407,0.0409,0.039,0.0391,0.0424,0.0425,0.0363,0.036,0.0357,0.0344,0,0,0,0,0,0,0.0292,0.0288,0.0283,0.0297,0.0299,0.0299,0.0324,0.0334,0.0344,0.035,0.0382,0.0386,0.0408,0.0389,0.039,0.0391,0.0425,0.0365,0.0362,0.0358,0.0347,0.0341,0.0336,0,0,0,0,0,0.0293,0.0286,0.0283,0.0281,0.0289,0.0298,0.0304,0.0335,0.0343,0.0356,0.0353,0.0386,0.0369,0.0388,0.0389,0.0391,0.0367,0.0363,0.0359,0.0349,0.0342,0.0336,0,0,0,0,0,0,0.0303,0.0292,0.029,0.0281,0.0288,0.0309,0.0321,0.0328,0.0339,0.0344,0.0359,0.0363,0.0346,0.0354,0.0375,0.0356,0.0374,0.037,0.0366,0.036,0.0355,0.0374,0.0425,0,0,0,0,0,0.0295,0.0287,0.0284,0.0278,0.028,0.0295,0.0302,0.0319,0.0324,0.0333,0.0343,0.0341,0.0328,0.0333,0.0328,0.0316,0.0304,0.0314,0.0309,0.0305,0.0318,0.0275,0.0268,0.0343,0.0343,0.0343,0,0,0.0296,0.0288,0.0284,0.0278,0.0289,0.0297,0.0306,0.0318,0.0325,0.033,0.0338,0.0322,0.0315,0.0304,0.0299,0.0316,0.0271,0.03,0.0297,0.0312,0.027,0.0263,0.0257,0.034,0.034,0.0341,0,0,0.0302,0.0287,0.0289,0.029,0.0295,0.0302,0.0299,0.0311,0.0323,0.0311,0.0308,0.0282,0.028,0.0274,0.0268,0.0223,0.0237,0.0223,0.0228,0.0186,0.0181,0.0176,0.0133,0.0125,0.0231,0.0231,0.0231,0,0.0305,0.0304,0.0293,0.0297,0.0303,0.0299,0.0313,0.0314,0.0317,0.0315,0.0314,0.0275,0.0267,0.0242,0.0229,0.0217,0.0195,0.026,0.0182,0.0177,0.0172,0.013,0.0121,0.023,0.023,0.023,0.023,0,0.0319,0.0317,0.0319,0.0319,0.0324,0.0334,0.0328,0.033,0.0326,0.0321,0.0292,0.0263,0.0249,0.0228,0.0219,0.018,0.0174,0.0175,0.0207,0.0165,0.0122,0.0112,0.0228,0.0228,0.0229,0.0229,0,0,0.0328,0.0329,0.0331,0.0343,0.0339,0.035,0.0347,0.0348,0.0353,0.0325,0.0322,0.0267,0.0251,0.024,0.0216,0.0175,0.0106,0.0166,0.0164,0.014,0.0011,0.0016,0.0006,0.0097,0.0095,0.0094,-0.0011,0,0.0347,0.0367,0.0359,0.0382,0.0395,0.0387,0.039,0.0384,0.0372,0.0363,0.0311,0.0297,0.0256,0.0252,0.0197,0.0138,0.0084,0.0135,0.0043,0.004,0.0063,-0.0004,0.009,-0.0018,-0.002,-0.0022,-0.0023,0,0.0366,0.0379,0.0408,0.0426,0.0432,0.0446,0.046,0.0461,0.0432,0.0421,0.0381,0.0346,0.0282,0.0256,0.0124,0.016,0.0085,0.0027,0.0022,0.0033,0.0028,0.0035,-0.004,-0.0038,-0.0037,-0.0036,-0.0035,0,0.0395,0.0414,0.0444,0.0449,0.0463,0.0484,0.0498,0.0485,0.0498,0.0465,0.0467,0.0377,0.035,0.0237,0.0115,0.0121,-0.0034,-0.0037,-0.0113,-0.0113,-0.0075,-0.0068,-0.0141,-0.0141,-0.0141,-0.014,-0.014,0,0.0415,0.044,0.0468,0.0484,0.0529,0.0529,0.0574,0.0564,0.0567,0.0578,0.0508,0.0492,0.0345,0.0242,0.0121,-0.0026,-0.0034,-0.0123,-0.0143,-0.0083,-0.0076,-0.0083,-0.0075,-0.0144,-0.0143,-0.0143,-0.0142,0,0.0437,0.045,0.0491,0.0527,0.0544,0.0581,0.0638,0.0666,0.0658,0.0671,0.0668,0.0575,0.0442,0.0281,0.0096,-0.0003,-0.0148,-0.02,-0.013,-0.0143,-0.0202,-0.0194,-0.0292,-0.0293,-0.0294,-0.0294,-0.0295,0,0.0449,0.0471,0.0528,0.0564,0.0588,0.0648,0.069,0.0709,0.0738,0.0719,0.0723,0.0614,0.053,0.0274,0.0097,-0.0143,-0.0175,-0.0254,-0.0232,-0.021,-0.022,-0.021,-0.0201,-0.0296,-0.0296,-0.0296,-0.0296,0,0.0471,0.0495,0.0531,0.0605,0.0663,0.0724,0.0785,0.0812,0.0826,0.0823,0.0775,0.0646,0.0491,0.0285,0.0094,-0.0077,-0.0202,-0.0261,-0.0261,-0.0241,-0.0215,-0.0222,-0.0213,-0.0299,-0.0298,-0.0298,-0.0298,0,0.0494,0.0523,0.0575,0.0639,0.0712,0.0773,0.0806,0.0843,0.0867,0.0845,0.0825,0.0663,0.0568,0.0318,0.0142,-0.0027,-0.0066,-0.0116,-0.0123,-0.0123,-0.0042,0.0018,-0.0021,0,0,0,0,0,0.0508,0.054,0.0604,0.0674,0.075,0.079,0.0854,0.0881,0.0895,0.0873,0.0854,0.0713,0.0463,0.0354,0.0187,0.0114,-0.0109,-0.0089,-0.0174,-0.0311,-0.0309,-0.0242,0,0,0,0,0,0,0.0517,0.0573,0.0601,0.069,0.0745,0.0826,0.0867,0.088,0.087,0.0861,0.0734,0.0676,0.0431,0.0562,0.0186,0.0133,0.0057,-0.0204,-0.0208,-0.0313,-0.031,-0.0308,-0.0238,0,0,0,0,0]}]]